Weather in Vozdvizhenka

Russia / Kurgan Oblast     54°39′23″N   63°52′24″E
temp.,
°C
wind,
m/s
gust,
m/s
humid.,
%
clouds,
%
prec.,
mm/h
press.,
hPa
HPBL,
m
29 november, mon
mon2923:00−6ssw51278100 0.0 1028244
02:00−6ssw5127698 0.0 1027227
05:00−7ssw41179100 0.0 1026194
08:00−7ssw41080100 0.0 1025171
11:00−6ssw4979100 0.0 1025202
14:00−4ssw388116 0.0 1024195
17:00−8ssw36895 0.0 102468
20:00−9sw34915 0.0 102447
30 november, tue
tue3023:00−9sw228874 0.0 102435
02:00−7sw238284 0.0 102462
05:00−6ssw348089 0.0 102378
08:00−8s348334 0.0 102261
11:00−7s4976100 0.0 1022151
14:00−5s497672 0.0 1020186
17:00−7s5118826 0.0 1019165
20:00−6s51484100 0.0 1018226
1 december, wed
wed123:00−5s7177389 0.0 1016280
02:00−4ssw71871100 0.0 1015368
05:00−3ssw61675100 0.0 1014402
08:00−3s61580100 0.1 1013371
11:00−2s71794100 1.7 1013391
14:00−2s71787100 0.6 1012383
17:00−1s71776100 0.8 1010353
20:00−1sse71777100 0.0 1008366
2 december, thu
thu223:00+1sse8217691 0.0 1005480
02:00+2s82074100 0.0 1002594
05:00+2s71784100 0.4 1001549
08:000s71585100 0.0 1000406
11:000ssw6128898 0.0 1000360
14:00+1sw5119397 0.0 1001326
17:00−1w51191100 0.0 1003250
20:00−4wsw3593100 0.0 100672
3 december, fri
fri323:00−6wsw37935 0.0 1008106
02:00−7wsw38915 0.0 1009133
05:00−7wsw511905 0.0 1010210
08:00−7wsw513895 0.0 1011289
11:00−5wsw6138762 0.0 1013399
14:00−5wsw6138318 0.0 1014397
17:00−6sw5128967 0.0 1016273
20:00−4sw5138967 0.0 1017376